Simultaneous Nadir Overpasses (SNOs) Predictions

Prediction of SNOs between GOES-16 and METOP-C Satellite Orbit:

Table of predicted SNOs for the next 14.0 days since TLE Epoch: 4/27/2019
Index Date Time (GOES-16) GOES-16 Lat,Lon METOP-C Lat,Lon Distance(km) Time Diff (sec)
1 04/28/2019 02:32:54 0.01, -75.18 -0.02, -75.24 6.66 80
2 04/30/2019 14:28:27 -0.01, -75.22 -0.08, -74.80 47.56 80
3 05/02/2019 02:50:09 0.01, -75.21 -0.92, -79.41 478.16 80
4 05/03/2019 02:26:51 0.01, -75.22 0.21, -74.42 91.86 80
5 05/04/2019 14:48:22 -0.01, -75.26 0.82, -78.97 423.15 80
6 05/05/2019 14:25:04 -0.01, -75.27 -0.32, -73.99 147.09 80
7 05/07/2019 02:46:45 0.00, -75.26 -0.75, -78.58 378.00 80
8 05/08/2019 02:23:27 -0.00, -75.27 0.39, -73.59 192.27 80
9 05/09/2019 14:42:18 0.01, -75.32 0.65, -78.15 322.49 80
10 05/10/2019 14:21:39 0.01, -75.33 -0.49, -73.16 247.91 80




NCC Satellite Simultaneous Nadir Overpasses (SNOs) Prediction Service
